Location: Belvedere Heights
(33.9836°N, 117.3109°W)
Time: 05:30:14
(UTC+00:00)

POLYITAN 1 - Pass Details

Date: 30 May 2024
Orbit: 548 x 570 km, 98.1° (Epoch: 13 June)

Event Time Altitude Azimuth Distance (km) Brightness Sun altitude
Rises 11:02:04 0° 15° (NNE) 2,738 ? -17.4°
Reaches altitude 10° 11:04:14 10° 18° (NNE) 1,836 ? -17.0°
Maximum altitude 11:08:11 68° 102° (ESE) 597 ? -16.4°
Enters shadow 11:10:50 20° 181° (S) 1,315 ? -16.0°
